Orbital Elements at Epoch 2459200.5 (2020-Dec-17.0) TDB
Reference: JPL 13 (heliocentric ecliptic J2000)
Element | Value | Uncertainty (1-sigma) | Units |
e | .06797453298131408 | 1.088e-07 | |
a | 2.597316245517153 | 1.9353e-08 | au |
q | 2.420764886723345 | 2.7516e-07 | au |
i | 2.964718147644357 | 7.7447e-06 | deg |
node | 186.1074251133549 | 0.00011322 | deg |
peri | 19.16790689421878 | 0.0001194 | deg |
M | 69.77039352490381 | 3.4774e-05 | deg |
tp | 2458904.184515768774 (2020-Feb-24.68451577) | 0.00014876 | TDB |
period | 1528.923214187768 4.19 | 1.7088e-05 4.678e-08 | d yr |
n | .2354598299374034 | 2.6316e-09 | deg/d |
Q | 2.773867604310962 | 2.0668e-08 | au |
|
| | Orbit Determination Parameters
Additional Information
|